SCP
7 8 7 6 6 7 6 6 7 8 8 7 6 5 4 3 2 1 1 0 0 0 0 0 0 0 0 0 0 0 0 0 0 0 0 0 0 0 0 0 0 0 0
9 9 8 7 6 6 6 7 8 9 9 8 7 5 4 2 1 1 1 0 0 0 0 0 0 0 0 0 0 0 0 0 0 0 0 0 0 0 0 0 0 0 0
10 10 9 7 6 6 6 7 9 9 9 8 6 4 3 2 1 1 0 0 0 0 0 0 0 0 0 0 0 0 0 0 0 0 0 0 0 0 0 0 0 0 0
9 10 10 8 6 6 6 7 8 8 8 7 5 4 2 2 1 1 0 0 0 0 0 0 0 0 0 0 0 0 0 0 0 0 0 0 0 0 0 0 0 0 0
7 9 9 8 6 6 6 6 7 7 7 6 5 4 3 2 1 0 0 0 0 0 0 0 0 0 0 0 0 0 0 0 0 0 0 0 0 0 0 0 0 0 0
7 9 9 7 6 5 5 5 5 5 5 4 4 3 2 1 1 0 0 0 0 0 0 0 0 0 0 0 0 0 0 0 0 0 0 0 0 0 0 0 0 0 0
8 8 8 6 5 4 4 3 3 3 2 2 1 1 1 0 0 0 0 0 0 0 0 0 0 0 0 0 0 0 0 0 0 0 0 0 0 0 0 0 0 0 0
8 7 6 4 3 2 2 1 1 1 1 0 0 0 0 0 0 0 0 0 0 0 0 0 0 0 0 0 0 0 0 0 0 0 0 0 0 0 0 0 0 0 0
6 5 3 2 1 1 1 0 0 0 0 0 0 0 0 0 0 0 0 0 0 0 0 0 0 0 0 0 0 0 0 0 0 0 0 0 0 0 0 0 0 0 0
3 2 1 1 0 0 0 0 0 0 0 0 0 0 0 0 0 0 0 0 0 0 0 0 0 0 0 0 0 0 0 0 0 0 0 0 0 0 0 0 0 0 0
1 1 0 0 0 0 0 0 0 0 0 0 0 0 0 0 0 0 0 0 0 0 0 0 0 0 0 0 0 0 0 0 0 0 0 0 0 0 0 0 0 0 0
1 0 0 0 0 0 0 0 0 0 0 0 0 0 0 0 0 0 0 0 0 0 0 0 0 0 0 0 0 0 0 0 0 0 0 0 0 0 0 0 0 0 0
0 0 0 0 0 0 0 0 0 0 0 0 0 0 0 0 0 0 0 0 0 0 0 0 0 0 0 0 0 0 0 0 0 0 0 0 0 0 0 0 0 0 0
0 0 0 0 0 0 0 0 0 0 0 0 0 0 0 0 0 0 0 0 0 0 0 0 0 0 0 0 0 0 0 0 0 0 0 0 0 0 0 0 0 0 0
0 0 0 0 0 0 0 0 0 0 0 0 0 0 0 0 0 0 0 0 0 0 0 0 0 0 0 0 0 0 0 0 0 0 0 0 0 0 0 0 0 0 0
0 0 0 0 0 0 0 0 0 0 0 0 0 0 0 0 0 0 0 0 0 0 0 0 0 0 0 0 0 0 0 0 0 0 0 0 0 0 0 0 0 0 0
0 0 0 0 0 0 0 0 0 0 0 0 0 0 0 0 0 0 0 0 0 0 0 0 0 0 0 0 0 0 0 0 0 0 0 0 0 0 0 0 0 0 0
0 0 0 0 0 0 0 0 0 0 0 0 0 0 0 0 0 0 0 0 0 0 0 0 0 0 0 0 0 0 0 0 0 0 0 0 0 0 0 0 0 0 0
0 0 0 0 0 0 0 0 0 0 0 0 0 0 0 0 0 0 0 0 0 0 0 0 0 0 0 0 0 0 0 0 0 0 0 0 0 0 0 0 0 0 0
0 0 0 0 0 0 0 0 0 0 0 0 0 0 0 0 0 0 0 0 0 0 0 0 0 0 0 0 0 0 0 0 0 0 0 0 0 0 0 -0 0 0 0
0 0 0 0 0 0 0 0 0 0 0 0 0 0 0 0 0 0 0 0 0 0 0 0 0 0 0 0 0 0 0 0 0 0 0 0 0 0 -0 -0 0 0 0
0 0 0 0 0 -0 -0 -0 -0 0 0 0 0 0 0 0 0 0 0 0 0 0 0 0 0 0 0 0 0 0 0 0 -0 -0 -0 -0 -0 -0 0 0 0 0 0
0 0 0 0 -0 -0 -0 -0 0 0 0 0 0 0 0 0 0 0 0 0 0 0 0 0 0 0 0 0 0 0 0 -0 -0 -0 -0 -0 -0 -0 0 0 0 0 0
-0 -0 0 0 0 0 0 0 0 0 0 0 0 0 0 0 0 0 0 0 0 0 0 0 0 0 0 0 0 0 0 0 -0 -0 -0 -0 0 0 0 0 0 0 0
0 0 0 0 0 0 0 0 0 0 0 0 0 0 0 0 0 0 0 0 0 0 0 0 0 0 0 0 0 0 0 0 -0 -0 -0 -0 0 0 0 0 0 0 0
0 0 0 0 0 0 0 0 0 0 0 0 0 0 0 0 0 0 0 0 0 0 0 0 0 0 0 0 0 0 0 0 -0 -0 -0 -0 0 0 0 0 0 0 0
Wind_Speed
14 15 13 14 12 10 9 8 8 9 8 7 8 7 7 7 7 7 8 8 7 7 5 5 3 2 3 2 2 3 4 4 4 4 5 5 5 6 5 4 3 3 4
17 17 15 12 12 10 8 7 8 10 9 7 6 6 7 7 7 7 6 7 6 4 5 4 3 4 2 1 2 3 2 4 4 4 5 4 4 4 6 5 4 5 4
19 20 18 15 13 11 9 8 8 9 9 10 8 8 7 7 7 7 5 5 5 6 5 4 4 4 3 4 3 3 4 3 5 4 2 3 3 5 5 7 5 5 4
17 20 18 16 13 11 8 7 9 8 9 9 10 11 9 8 8 6 5 5 4 5 4 4 4 3 3 4 4 6 3 3 4 4 3 3 3 3 4 5 5 5 5
17 21 19 15 12 11 8 8 9 9 8 7 8 7 7 7 5 6 6 5 5 4 3 4 3 1 2 4 3 3 2 3 4 4 5 5 4 4 5 6 5 5 4
16 20 18 15 12 11 9 9 9 8 7 8 7 7 8 7 7 5 5 3 5 5 4 5 2 0 3 3 1 1 2 1 1 2 4 4 4 5 5 7 7 6 5
16 19 18 16 15 13 11 9 9 9 8 9 8 8 7 6 5 3 3 0 3 6 4 4 1 1 2 1 1 1 2 3 3 2 4 3 3 4 5 6 7 8 6
18 18 17 16 15 14 12 11 10 9 9 9 8 6 4 3 4 4 2 2 4 6 4 3 2 1 1 1 2 2 4 3 2 5 5 4 5 5 5 5 7 10 8
19 18 16 14 13 13 11 10 10 9 9 9 7 6 6 6 6 3 2 4 3 3 3 0 1 1 1 2 2 3 4 4 5 5 6 5 5 5 5 5 5 7 11
17 17 15 13 12 11 10 9 8 9 9 8 6 6 5 5 4 4 5 4 3 3 0 2 2 2 3 3 4 4 4 4 5 5 6 6 5 5 5 5 5 6 9
15 15 14 13 13 11 10 8 8 8 7 6 6 6 4 4 3 4 4 3 2 0 3 3 3 3 4 4 4 4 5 6 6 6 7 7 7 6 5 5 6 6 8
15 15 14 14 12 11 9 8 7 6 6 6 5 4 3 2 3 4 4 2 1 2 3 4 4 5 5 4 5 6 7 7 7 8 7 8 7 7 6 5 7 7 7
16 15 13 12 11 10 8 8 6 5 5 5 5 2 2 2 3 4 3 1 1 3 3 4 4 5 5 6 8 9 9 9 9 9 9 8 8 7 6 7 8 8 9
15 15 13 12 10 9 8 8 7 7 6 4 3 1 1 2 2 3 2 2 3 4 4 5 6 6 8 10 10 10 9 9 9 9 8 8 7 7 7 8 8 8 9
14 14 13 12 11 11 10 10 9 7 6 4 2 0 1 2 2 3 3 4 5 6 6 6 6 6 7 8 9 9 9 9 10 9 8 8 11 12 9 10 9 9 9
14 14 14 13 12 11 11 10 8 6 5 5 3 1 1 2 2 2 3 4 5 6 6 7 7 7 5 6 7 7 9 9 10 9 8 9 10 10 13 17 18 16 12
15 15 13 13 12 11 10 9 7 5 4 4 4 3 2 2 3 4 5 5 5 6 6 6 5 3 4 3 2 8 9 10 9 9 8 9 11 12 9 13 18 17 19
15 14 14 13 12 10 9 7 4 3 2 1 2 2 1 3 3 3 4 5 5 5 5 5 5 5 1 1 3 10 10 9 8 8 9 9 11 11 11 13 13 13 13
14 14 13 13 11 8 6 4 2 2 2 1 0 1 2 2 3 5 5 5 5 4 4 5 6 6 3 1 4 8 9 8 9 9 10 10 10 12 14 14 13 12 11
14 13 12 11 9 6 4 3 3 3 2 2 1 1 2 3 3 5 5 4 4 4 5 6 6 6 6 3 4 9 9 9 10 9 8 10 10 14 17 13 11 11 10
14 12 11 8 6 5 4 4 5 4 3 3 3 3 3 3 6 5 4 4 4 5 5 6 6 6 6 6 7 10 9 9 10 9 8 7 14 17 18 15 9 10 10
12 10 8 7 6 7 6 5 4 3 3 3 4 4 5 6 6 5 4 4 5 5 5 6 7 6 6 8 11 13 12 12 10 9 8 9 16 18 16 11 11 11 7
9 7 8 8 7 7 5 4 3 4 4 4 4 4 6 6 5 5 5 5 5 5 6 6 7 8 8 9 14 15 15 15 10 8 14 16 16 14 9 11 13 9 5
8 8 8 7 6 6 5 4 5 5 5 3 2 4 5 5 5 4 5 5 6 6 6 6 7 7 7 7 9 9 10 11 10 9 11 13 12 10 9 9 8 6 5
9 8 7 7 8 7 6 6 6 4 2 1 2 4 6 5 4 5 5 5 5 4 4 5 5 6 6 9 14 10 8 7 8 9 6 5 6 6 6 6 6 5 5
7 7 8 8 8 8 7 6 5 5 5 4 4 5 5 4 4 3 3 2 2 4 2 2 3 5 6 11 14 15 14 12 13 8 6 7 7 6 6 6 6 5 5
Wind_Direction
148 137 145 147 147 148 161 170 162 144 141 137 137 133 127 118 109 102 94 85 81 74 61 78 80 63 69 54 14 22 337 324 322 318 311 303 298 291 289 309 316 8 7
143 146 152 156 158 161 167 170 158 147 144 137 133 129 123 115 105 96 93 95 93 86 84 59 42 45 11 33 47 40 350 332 347 332 313 306 301 338 355 345 357 10 1
162 158 160 164 168 169 174 173 157 152 142 135 125 117 109 114 118 121 115 114 110 90 71 64 49 26 3 63 36 35 24 351 327 308 321 322 325 342 318 344 347 349 346
179 165 165 168 165 159 163 163 151 147 135 135 139 144 149 150 142 138 130 125 96 89 83 70 64 36 11 54 35 59 4 338 316 333 347 326 315 296 307 311 309 320 318
190 170 165 159 147 141 141 137 136 132 137 138 141 146 129 121 124 120 132 133 116 109 103 95 70 32 68 78 49 48 2 332 2 355 338 328 321 288 281 301 314 308 291
180 158 151 139 123 116 113 116 118 113 106 98 93 93 102 113 122 129 140 165 146 136 126 115 94 351 73 77 75 89 289 19 360 324 312 312 316 324 321 310 306 305 318
139 137 136 133 126 118 114 114 112 105 99 94 89 89 92 99 106 115 126 281 135 121 100 99 114 57 99 213 194 216 264 249 232 234 262 281 304 300 296 297 299 299 298
113 122 129 132 130 126 124 122 118 113 107 99 93 92 112 134 103 56 95 92 66 99 129 147 180 221 260 310 59 324 282 271 254 258 262 261 262 263 270 278 289 291 289
109 117 123 129 129 127 123 121 120 116 110 103 97 86 69 74 94 97 54 92 74 112 94 328 256 256 263 267 257 254 270 264 253 255 256 254 258 261 263 269 274 283 290
119 125 129 129 125 122 115 112 115 115 114 121 133 120 109 106 126 115 77 76 82 74 332 262 267 274 265 254 249 261 267 277 275 268 268 270 271 275 276 273 271 267 272
130 129 128 125 124 123 121 116 111 108 106 99 90 104 114 127 137 118 118 109 87 260 265 292 303 296 285 279 280 284 289 292 296 299 299 296 294 290 288 286 282 275 273
131 128 127 127 127 126 121 110 103 100 99 99 94 96 111 136 146 122 110 120 126 290 311 313 308 307 316 326 325 328 337 339 332 324 317 314 315 316 312 307 299 292 286
126 126 126 126 125 123 117 107 100 93 96 106 114 131 160 141 107 104 98 56 330 309 312 319 327 337 350 10 19 16 4 349 334 325 322 322 323 318 316 312 302 297 294
128 130 127 123 119 114 109 100 81 69 67 68 86 103 82 94 92 80 59 13 359 345 360 359 355 2 34 41 27 10 349 335 324 318 315 311 308 304 303 299 291 293 294
133 132 128 122 111 99 89 82 69 52 34 12 360 69 129 103 70 50 34 30 17 6 8 357 359 11 56 45 27 360 340 324 310 306 302 298 300 301 304 302 299 294 288
135 127 121 114 106 100 94 83 68 40 7 342 324 5 38 58 56 42 58 44 25 11 9 6 8 14 50 67 35 357 327 309 305 306 307 306 303 312 310 305 304 300 292
132 125 117 111 105 99 93 83 64 32 8 355 355 357 352 42 44 31 43 33 25 20 13 8 8 16 115 98 350 336 318 310 308 311 315 318 320 319 313 311 306 298 290
117 113 111 106 101 96 89 83 69 38 13 324 303 312 26 64 45 48 40 34 34 24 0 355 359 343 76 184 320 330 323 316 316 321 320 320 320 320 324 314 302 292 285
103 105 107 107 105 104 107 112 131 178 199 205 224 45 42 39 37 48 41 40 20 7 352 359 348 337 340 262 334 344 328 325 326 323 318 316 316 321 318 309 299 294 289
105 109 111 112 115 124 138 148 160 163 163 162 145 95 45 15 36 56 42 25 358 3 358 355 342 335 336 0 15 352 338 335 328 317 312 316 325 321 317 313 301 294 295
113 117 121 124 135 155 167 171 166 173 189 182 145 88 36 13 60 52 40 22 11 12 0 349 339 339 350 11 23 359 347 336 321 316 322 327 329 325 322 318 307 299 297
123 129 134 145 169 185 182 170 167 174 160 127 97 73 56 36 42 38 41 39 17 7 5 352 348 353 4 18 6 352 340 329 321 321 328 328 327 326 325 328 333 332 326
137 152 161 167 179 183 180 155 143 132 109 86 76 77 80 74 50 39 38 36 24 15 10 3 357 356 359 4 357 344 333 331 330 326 329 328 327 330 334 343 349 357 9
165 177 171 157 147 143 133 115 98 88 83 76 80 105 96 89 74 49 38 40 26 18 11 4 353 349 349 355 346 336 330 332 334 332 325 325 331 339 340 345 356 4 8
178 170 150 131 120 116 111 101 92 90 99 92 87 98 86 76 76 71 47 44 63 44 12 1 346 343 344 336 326 328 333 332 329 327 329 340 342 352 354 353 355 360 4
152 137 125 117 111 107 101 93 82 59 34 44 57 76 78 67 62 86 115 99 102 166 207 265 312 342 345 334 337 341 343 345 343 347 351 349 348 352 357 355 355 357 1